KU4DD Weather Reports


time (UTC)temp
C
wind
direction
speed
KPH
gust
KPH
rain 1hr
cm
rain 24hr
cm
rain mn
cm
humidity
%
barometer
mb
20260503054923 21 8 0.0 0.0 0.00 0.00 0.00 54 1012.2
20260503054406 21 8 0.0 0.0 0.00 0.00 0.00 54 1012.5
20260503053842 22 8 0.0 0.0 0.00 0.00 0.00 53 1012.2
20260503053328 22 8 0.0 0.0 0.00 0.00 0.00 53 1012.2
20260503052815 23 8 0.0 0.0 0.00 0.00 0.00 53 1012.2
20260503052300 23 8 0.0 0.0 0.00 0.00 0.00 53 1012.2
20260503051747 23 8 0.0 0.0 0.00 0.00 0.00 55 1012.2
20260503051233 23 8 0.0 0.0 0.00 0.00 0.00 55 1012.2
20260503050720 23 8 0.0 0.0 0.00 0.00 0.00 55 1012.2
20260503050207 23 8 0.0 0.0 0.00 0.00 0.00 55 1012.2
20260503045653 23 8 0.0 0.0 0.00 0.00 0.00 55 1011.9
20260503045141 23 8 0.0 0.0 0.00 0.00 0.00 56 1012.2
20260503044628 23 8 0.0 0.0 0.00 0.00 0.00 55 1012.2
20260503044115 23 8 0.0 0.0 0.00 0.00 0.00 55 1012.2
20260503043605 23 8 0.0 0.0 0.00 0.00 0.00 55 1012.2
20260503043050 22 8 0.0 0.0 0.00 0.00 0.00 56 1012.2
20260503042536 22 8 0.0 0.0 0.00 0.00 0.00 55 1012.2
20260503042024 22 8 0.0 0.0 0.00 0.00 0.00 56 1012.2
20260503041511 22 8 0.0 0.0 0.00 0.00 0.00 56 1012.2
20260503040957 21 8 0.0 0.0 0.00 0.00 0.00 57 1011.9
20260503040444 21 8 0.0 0.0 0.00 0.00 0.00 57 1012.2
20260503035929 21 8 0.0 1.6 0.00 0.00 0.00 58 1011.9
20260503035416 21 8 0.0 1.6 0.00 0.00 0.00 57 1011.9
20260503034901 20 8 0.0 1.6 0.00 0.00 0.00 57 1011.9
20260503034349 20 8 0.0 1.6 0.00 0.00 0.00 57 1011.9
20260503033847 21 8 0.0 1.6 0.00 0.00 0.00 57 1011.9
20260503033331 21 8 0.0 1.6 0.00 0.00 0.00 57 1011.9
20260503032813 21 8 0.0 1.6 0.00 0.00 0.00 57 1011.9
20260503032250 21 8 0.0 1.6 0.00 0.00 0.00 56 1011.9
20260503031733 21 8 0.0 1.6 0.00 0.00 0.00 56 1011.9
20260503031232 21 8 0.0 1.6 0.00 0.00 0.00 56 1011.5
20260503030714 21 8 0.0 1.6 0.00 0.00 0.00 56 1011.5
20260503030152 21 8 0.0 1.6 0.00 0.00 0.00 56 1011.9
20260503025639 21 8 0.0 1.6 0.00 0.00 0.00 56 1011.2
20260503025126 21 8 0.0 1.6 0.00 0.00 0.00 56 1011.2
20260503024611 21 8 0.0 1.6 0.00 0.00 0.00 56 1011.2
20260503024047 21 8 0.0 1.6 0.00 0.00 0.00 55 1011.5
20260503023533 21 8 0.0 1.6 0.00 0.00 0.00 55 1011.5
20260503023005 21 8 0.0 1.6 0.00 0.00 0.00 55 1011.5
20260503022447 21 8 0.0 1.6 0.00 0.00 0.00 55 1011.2
20260503021922 21 8 0.0 1.6 0.00 0.00 0.00 54 1011.5
20260503021410 21 8 0.0 1.6 0.00 0.00 0.00 55 1011.9
20260503020856 21 8 0.0 1.6 0.00 0.00 0.00 54 1011.9
20260503020344 21 8 0.0 1.6 0.00 0.00 0.00 54 1011.5
20260503015830 21 8 0.0 1.6 0.00 0.00 0.00 54 1011.5
20260503015316 21 8 0.0 1.6 0.00 0.00 0.00 55 1011.5
20260503014800 21 8 0.0 1.6 0.00 0.00 0.00 55 1011.2
20260503014238 22 8 0.0 1.6 0.00 0.00 0.00 52 1011.2
20260503013723 21 8 0.0 1.6 0.00 0.00 0.00 55 1011.2
20260503013209 22 8 0.0 1.6 0.00 0.00 0.00 55 1011.2
20260503012652 21 8 0.0 1.6 0.00 0.00 0.00 53 1011.2
20260503012128 22 8 0.0 1.6 0.00 0.00 0.00 55 1010.8
20260503011626 22 8 0.0 1.6 0.00 0.00 0.00 55 1010.8
20260503011109 21 8 0.0 1.6 0.00 0.00 0.00 54 1010.8
20260503010608 21 8 0.0 1.6 0.00 0.00 0.00 55 1010.8
20260503010047 21 8 0.0 1.6 0.00 0.00 0.00 54 1010.8
20260503005530 21 8 0.0 1.6 0.00 0.00 0.00 54 1010.5
20260503005006 21 8 0.0 1.6 0.00 0.00 0.00 56 1010.5
20260503004455 22 8 0.0 1.6 0.00 0.00 0.00 52 1010.5
20260503003953 21 8 0.0 1.6 0.00 0.00 0.00 55 1010.5
20260503003431 22 8 0.0 1.6 0.00 0.00 0.00 54 1010.2
20260503002925 22 8 0.0 1.6 0.00 0.00 0.00 56 1010.2
20260503002410 22 8 0.0 1.6 0.00 0.00 0.00 56 1010.2
20260503001905 22 8 0.0 1.6 0.00 0.00 0.00 56 1009.8
20260503001400 22 8 0.0 1.6 0.00 0.00 0.00 57 1010.2
20260503000853 22 8 0.0 1.6 0.00 0.00 0.00 56 1009.8
20260503000348 22 8 0.0 1.6 0.00 0.00 0.00 56 1009.8
20260502235842 22 8 0.0 1.6 0.00 0.00 0.00 56 1009.8
20260502235328 22 8 0.0 1.6 0.00 0.00 0.00 56 1009.8
20260502234819 22 8 0.0 1.6 0.00 0.00 0.00 55 1009.8
20260502234302 22 8 0.0 1.6 0.00 0.00 0.00 56 1009.8
20260502233755 22 8 0.0 1.6 0.00 0.00 0.00 56 1009.5
20260502233249 22 8 0.0 1.6 0.00 0.00 0.00 55 1009.5
20260502232731 22 8 0.0 1.6 0.00 0.00 0.00 56 1009.5
20260502232226 22 8 0.0 1.6 0.00 0.00 0.00 56 1009.5
20260502231721 22 8 0.0 1.6 0.00 0.00 0.00 55 1009.5
20260502231211 22 8 0.0 1.6 0.00 0.00 0.00 55 1009.1
20260502230659 22 8 0.0 1.6 0.00 0.00 0.00 55 1009.5
20260502230148 22 8 0.0 1.6 0.00 0.00 0.00 55 1009.5
20260502225635 22 8 0.0 1.6 0.00 0.00 0.00 53 1009.5
20260502225112 22 8 0.0 1.6 0.00 0.00 0.00 56 1009.5
20260502224601 22 8 0.0 1.6 0.00 0.00 0.00 54 1009.5
20260502223552 22 8 0.0 1.6 0.00 0.00 0.00 55 1009.1
20260502223036 22 8 0.0 1.6 0.00 0.00 0.00 52 1009.5
20260502222531 22 8 0.0 1.6 0.00 0.00 0.00 56 1009.5
20260502222026 22 8 0.0 0.0 0.00 0.00 0.00 55 1009.1
20260502221520 22 8 0.0 0.0 0.00 0.00 0.00 54 1009.1
20260502221013 22 8 0.0 0.0 0.00 0.00 0.00 54 1009.1
20260502220507 22 8 0.0 0.0 0.00 0.00 0.00 53 1009.1
20260502220001 22 8 0.0 0.0 0.00 0.00 0.00 54 1009.1
20260502215455 22 8 0.0 0.0 0.00 0.00 0.00 55 1009.1
20260502214940 22 8 0.0 0.0 0.00 0.00 0.00 54 1009.1
20260502214435 22 8 0.0 0.0 0.00 0.00 0.00 56 1009.1
20260502213928 22 8 0.0 0.0 0.00 0.00 0.00 53 1009.1
20260502213423 22 8 0.0 0.0 0.00 0.00 0.00 55 1008.8
20260502212917 22 8 0.0 0.0 0.00 0.00 0.00 55 1009.1
20260502212412 22 8 0.0 0.0 0.00 0.00 0.00 54 1009.1
20260502211905 22 8 0.0 0.0 0.00 0.00 0.00 56 1009.1
20260502211401 22 8 0.0 0.0 0.00 0.00 0.00 54 1009.1
20260502210845 22 8 0.0 0.0 0.00 0.00 0.00 57 1009.1
20260502210341 22 8 0.0 0.0 0.00 0.00 0.00 56 1009.1
20260502205749 22 8 0.0 0.0 0.00 0.00 0.00 54 1009.1
20260502205243 22 8 0.0 0.0 0.00 0.00 0.00 58 1009.1
20260502204733 22 8 0.0 0.0 0.00 0.00 0.00 56 1009.1
20260502204230 21 8 0.0 0.0 0.00 0.00 0.00 57 1009.1
20260502203712 21 8 0.0 0.0 0.00 0.00 0.00 57 1009.1
20260502203200 21 8 0.0 0.0 0.00 0.00 0.00 54 1009.1
20260502202654 21 8 0.0 0.0 0.00 0.00 0.00 57 1009.1
20260502202137 21 8 0.0 0.0 0.00 0.00 0.00 55 1009.1
20260502201632 21 8 0.0 0.0 0.00 0.00 0.00 54 1009.1
20260502201126 21 8 0.0 0.0 0.00 0.00 0.00 55 1009.1
20260502200621 21 8 0.0 0.0 0.00 0.00 0.00 53 1009.1
20260502200116 21 8 0.0 0.0 0.00 0.00 0.00 56 1009.1
20260502195559 21 8 0.0 0.0 0.00 0.00 0.00 53 1009.5
20260502195055 21 8 0.0 0.0 0.00 0.00 0.00 54 1009.5
20260502194548 21 8 0.0 0.0 0.00 0.00 0.00 54 1009.5
20260502194033 21 8 0.0 0.0 0.00 0.00 0.00 53 1009.5
20260502193523 21 8 0.0 0.0 0.00 0.00 0.00 55 1009.5
20260502193014 21 8 0.0 0.0 0.00 0.00 0.00 53 1009.5
20260502192457 21 8 0.0 0.0 0.00 0.00 0.00 55 1009.5
20260502191951 21 8 0.0 0.0 0.00 0.00 0.00 53 1009.5
20260502191446 21 8 0.0 0.0 0.00 0.00 0.00 53 1009.8
20260502190940 21 8 0.0 0.0 0.00 0.00 0.00 55 1009.8
20260502190435 21 8 0.0 0.0 0.00 0.00 0.00 53 1009.8
20260502185934 21 8 0.0 0.0 0.00 0.00 0.00 55 1009.8
20260502185430 21 8 0.0 0.0 0.00 0.00 0.00 53 1010.2
20260502184925 21 8 0.0 0.0 0.00 0.00 0.00 54 1009.8
20260502184408 21 8 0.0 0.0 0.00 0.00 0.00 54 1009.8
20260502183852 21 8 0.0 0.0 0.00 0.00 0.00 53 1009.8
20260502183346 21 8 0.0 0.0 0.00 0.00 0.00 54 1009.8
20260502182333 21 8 0.0 0.0 0.00 0.00 0.00 54 1009.5
20260502181802 21 8 0.0 0.0 0.00 0.00 0.00 54 1009.8
20260502181256 21 8 0.0 0.0 0.00 0.00 0.00 53 1010.2
20260502180739 21 8 0.0 0.0 0.00 0.00 0.00 54 1010.2
20260502180232 21 8 0.0 0.0 0.00 0.00 0.00 52 1009.8
20260502170144 21 8 0.0 0.0 0.00 0.00 0.00 53 1010.2
20260502164122 21 8 0.0 0.0 0.00 0.00 0.00 55 1010.2
20260502163517 21 8 0.0 0.0 0.00 0.00 0.00 53 1010.2
20260502163010 21 8 0.0 0.0 0.00 0.00 0.00 55 1010.5
20260502162509 21 8 0.0 0.0 0.00 0.00 0.00 54 1010.8
20260502162003 21 8 0.0 0.0 0.00 0.00 0.00 54 1010.8
20260502161448 21 8 0.0 0.0 0.00 0.00 0.00 55 1010.8
20260502160936 21 8 0.0 0.0 0.00 0.00 0.00 52 1010.8
20260502160421 21 8 0.0 0.0 0.00 0.00 0.00 55 1011.2
20260502152203 21 8 0.0 0.0 0.00 0.00 0.00 100 1010.5
20260502151651 21 8 0.0 0.0 0.00 0.00 0.00 100 1010.2
20260502151141 21 8 0.0 0.0 0.00 0.00 0.00 100 1010.5
20260502150624 21 8 0.0 0.0 0.00 0.00 0.00 100 1010.2
20260502150113 21 8 0.0 0.0 0.00 0.00 0.00 100 1010.5
20260502130522 21 8 0.0 0.0 0.00 0.00 0.00 100 1009.8
20260502123401 21 8 0.0 0.0 0.00 0.00 0.00 61 1009.5
20260502122849 22 8 0.0 0.0 0.00 0.00 0.00 61 1009.5
20260502122336 21 8 0.0 0.0 0.00 0.00 0.00 61 1009.5
20260502121831 21 8 0.0 0.0 0.00 0.00 0.00 61 1009.5
20260502121312 20 8 0.0 0.0 0.00 0.00 0.00 61 1009.5
20260502120811 20 8 0.0 0.0 0.00 0.00 0.00 61 1009.5
20260502120308 20 8 0.0 0.0 0.00 0.00 0.00 61 1009.1
20260502115807 20 8 0.0 0.0 0.00 0.00 0.00 52 1009.1
20260502115254 20 8 0.0 0.0 0.00 0.00 0.00 53 1009.5
20260502114731 20 8 0.0 0.0 0.00 0.00 0.00 54 1009.1
20260502114217 20 8 0.0 0.0 0.00 0.00 0.00 52 1009.5
20260502113702 20 8 0.0 0.0 0.00 0.00 0.00 54 1009.5
20260502113151 20 8 0.0 0.0 0.00 0.00 0.00 53 1009.5
20260502112637 20 8 0.0 0.0 0.00 0.00 0.00 54 1009.5
20260502112124 20 8 0.0 0.0 0.00 0.00 0.00 54 1009.5
20260502111608 20 8 0.0 0.0 0.00 0.00 0.00 53 1009.5
20260502111045 20 8 0.0 0.0 0.00 0.00 0.00 55 1009.5
20260502110532 20 8 0.0 0.0 0.00 0.00 0.00 53 1009.5
20260502110019 20 8 0.0 0.0 0.00 0.00 0.00 53 1009.5
20260502105507 20 8 0.0 0.0 0.00 0.00 0.00 55 1009.5
20260502104944 20 8 0.0 0.0 0.00 0.00 0.00 52 1009.5
20260502104429 20 8 0.0 0.0 0.00 0.00 0.00 55 1009.8
20260502103927 20 8 0.0 0.0 0.00 0.00 0.00 53 1009.8
20260502103404 20 8 0.0 0.0 0.00 0.00 0.00 53 1009.8
20260502102850 20 8 0.0 0.0 0.00 0.00 0.00 54 1009.8
20260502102336 20 8 0.0 0.0 0.00 0.00 0.00 52 1009.8
20260502101822 20 8 0.0 0.0 0.00 0.00 0.00 54 1009.8
20260502101308 20 8 0.0 0.0 0.00 0.00 0.00 53 1009.5
20260502100755 20 8 0.0 0.0 0.00 0.00 0.00 53 1009.8
20260502100239 20 8 0.0 0.0 0.00 0.00 0.00 55 1009.8
20260502091520 20 8 0.0 0.0 0.00 0.00 0.00 53 1009.8
20260502091003 20 8 0.0 0.0 0.00 0.00 0.00 55 1009.5
20260502090441 20 8 0.0 0.0 0.00 0.00 0.00 53 1009.5
20260502071510 20 8 0.0 0.0 0.00 0.00 0.00 55 1008.8
20260502070956 20 8 0.0 0.0 0.00 0.00 0.00 53 1008.8
20260502070445 20 8 0.0 0.0 0.00 0.00 0.00 54 1009.1
20260502065930 20 8 0.0 0.0 0.00 0.00 0.00 55 1009.1
20260502065417 20 8 0.0 0.0 0.00 0.00 0.00 53 1009.1
20260502064906 20 8 0.0 0.0 0.00 0.00 0.00 55 1009.1
20260502064404 20 8 0.0 0.0 0.00 0.00 0.00 54 1009.1
20260502063847 20 8 0.0 0.0 0.00 0.00 0.00 56 1009.1
20260502063326 20 8 0.0 0.0 0.00 0.00 0.00 54 1009.1